Beidou DW 19

operational
NORAD ID: 40748 Int'l Des: 2015-037 Owner: CNSA Country: CN Constellation: BeiDou
MEOCIRCULAR

Über Beidou DW 19

Beschreibung wird geladen...

Live-Position

3D-Globus wird geladen...

Nächste Überflüge

Höhenverlauf

Altitude vs Time

uPlot chart will show altitude changes over time

Zweizeiliger Elementsatz

1 40748U 15037A 25345.92738932 -.00000089 00000-0 00000-0 0 9999
2 40748 55.0397 308.4912 0012345 267.8245 92.0250 1.86228970 70637
Epoch: 11. Dez. 2025 • Age: 177 hours

Aktueller Status

Höhe 21514.1 km
Geschwindigkeit 3.78 km/s
Subsatellitenpunkt -55.08°S, 18.6°E
Startdatum 25. Juli 2015
Alter 10.4 years
Typ navigation

Startgruppe

Unknown Vehicle • BeiDou Launch 20 • 2 satellites

Technische Details

Klassifizierung Payload
Masse 1014.00 kg
Trockenmasse 850.00 kg
Gesamtmasse 1014.00 kg
Länge 2.20 m
Durchmesser 1.70 m
Spannweite 10.00 m
Form Box + 2 Pan
Hersteller CAST
Bus-Typ BD-3M
Phasenstatus In Orbit
Besitzer/Staat CNSA/CN

Große Konstellationen

Loading constellations...